User: anonymous   Login
Location: Chiroubles
(46.1812°N, 4.6660°E)
Time: 20:23:46
(UTC+00:00)
Language:

Cosmos 968 Rocket - Orbit

View from above orbital plane
View from above orbital plane
View from above satellite
View from above satellite

Ground track
Ground track

The orbit data is extracted from the following two-line orbital elements,

1 10521U 77119B   20304.29689080  .00000113  00000-0  43663-4 0  9996
2 10521  74.0264 148.3668 0021749 222.8383 137.1078 14.40798209249557
Epoch (UTC): 30 October 2020 07:07:31
Eccentricity: 0.0021749
inclination: 74.0264°
perigee height: 740 km
apogee height: 771 km
right ascension of ascending node: 148.3668°
argument of perigee: 222.8383°
revolutions per day: 14.40798209
mean anomaly at epoch: 137.1078°
orbit number at epoch: 24955

The dashed part of the orbit path shows where the satellite is in the earth's shadow,  

DLR